Location: Daouli
(14.8671°N, 3.2030°W)
Time: 00:14:00
(UTC+00:00)

USA 281 - Pass Details

Date: 29 October 2020
Orbit: 1078 x 1081 km, 106.0° (Epoch: 28 November)

Event Time Altitude Azimuth Distance (km) Brightness Sun altitude
Rises 18:21:06 0° 158° (SSE) 3,863 6.0 -9.3°
Reaches altitude 10° 18:23:37 10° 157° (SSE) 2,908 5.4 -9.9°
Maximum altitude 18:30:09 84° 70° (ENE) 1,086 3.2 -11.4°
Drops below altitude 10° 18:36:42 10° 342° (NNW) 2,912 5.6 -13.0°
Sets 18:39:12 0° 342° (NNW) 3,868 6.2 -13.6°
